DW6743 Weather Reports


Display with metric or nautical units.
time (UTC)temp
F
wind
direction
speed
MPH
gust
MPH
rain 1hr
in
rain 24hr
in
rain mn
in
humidity
%
barometer
mb
20260902230107 59 297 16.0 25.0 0.00 0.03 0.00 71 1011.7
20260902224804 59 309 20.0 25.0 0.00 0.22 0.00 69 1011.8
20260902224604 59 296 18.0 27.0 0.00 0.03 0.00 70 1011.8
20260902224304 59 317 17.0 26.0 0.00 0.22 0.00 71 1011.8
20260902223304 59 297 20.0 26.0 0.03 0.22 0.00 71 1011.8
20260902223122 59 291 18.0 26.0 0.00 0.03 0.00 69 1011.8
20260902221804 59 296 18.0 25.0 0.03 0.22 0.00 72 1011.9
20260902221605 59 305 19.0 27.0 0.00 0.03 0.00 72 1011.9
20260902221304 59 289 21.0 26.0 0.03 0.22 0.00 72 1011.8
20260902220827 59 296 20.0 26.0 0.03 0.22 0.00 71 1011.9
20260902220109 59 295 19.0 28.0 0.00 0.03 0.00 71 1011.9
20260902214608 59 295 21.0 27.0 0.00 0.03 0.03 71 1011.8
20260902214303 59 305 18.0 25.0 0.00 0.22 0.03 72 1011.8
20260902213804 59 305 18.0 26.0 0.00 0.22 0.03 72 1011.9
20260902213304 59 307 21.0 29.0 0.00 0.19 0.03 72 1011.8
20260902213107 59 293 16.0 25.0 0.00 0.03 0.03 72 1011.7
20260902211804 59 299 21.0 28.0 0.00 0.19 0.03 72 1011.6
20260902211604 59 295 20.0 27.0 0.00 0.03 0.03 72 1011.6
20260902211304 60 300 20.0 26.0 0.00 0.19 0.03 73 1011.7
20260902210804 59 291 23.0 26.0 0.00 0.19 0.03 72 1011.7
20260902210109 59 283 18.0 29.0 0.00 0.03 0.03 72 1011.7
20260902204804 60 292 22.0 29.0 0.00 0.19 0.03 73 1011.6
20260902204640 59 291 21.0 30.0 0.00 0.03 0.03 73 1011.6
20260902204304 60 289 22.0 30.0 0.00 0.19 0.03 73 1011.6
20260902203304 60 288 23.0 28.0 0.00 0.28 0.03 74 1011.7
20260902203103 59 293 22.0 28.0 0.00 0.03 0.03 73 1011.6
20260902201804 60 284 19.0 25.0 0.00 0.25 0.03 74 1011.7
20260902201606 59 278 21.0 30.0 0.00 0.03 0.03 73 1011.7
20260902201304 60 287 23.0 30.0 0.00 0.25 0.03 74 1011.7
20260902200804 60 289 18.0 25.0 0.00 0.25 0.03 74 1011.7
20260902200304 60 285 22.0 28.0 0.00 0.35 0.03 74 1011.7
20260902200111 60 283 20.0 28.0 0.00 0.03 0.03 74 1011.7
20260902194608 60 286 22.0 29.0 0.00 0.03 0.03 72 1011.8
20260902194304 60 282 20.0 29.0 0.00 0.35 0.03 73 1011.8
20260902193804 60 286 21.0 29.0 0.00 0.35 0.03 73 1011.8
20260902193304 60 277 20.0 29.0 0.00 0.35 0.03 73 1011.8
20260902193113 60 291 18.0 26.0 0.00 0.03 0.03 73 1011.7
20260902191611 60 283 21.0 27.0 0.00 0.03 0.03 71 1011.7
20260902191304 61 291 22.0 26.0 0.00 0.35 0.03 72 1011.7
20260902190804 61 287 22.0 26.0 0.00 0.35 0.03 72 1011.7
20260902190304 61 296 22.0 29.0 0.00 0.35 0.03 72 1011.7
20260902190109 61 310 17.0 29.0 0.00 0.03 0.03 72 1011.5
20260902184803 61 290 18.0 26.0 0.00 0.35 0.03 72 1011.6
20260902184605 61 292 21.0 28.0 0.00 0.03 0.03 71 1011.5
20260902183804 61 288 18.0 28.0 0.00 0.35 0.03 72 1011.6
20260902183304 61 293 20.0 26.0 0.00 0.35 0.03 72 1011.6
20260902183113 61 274 18.0 25.0 0.00 0.03 0.03 71 1011.5
20260902181614 61 291 18.0 24.0 0.00 0.03 0.03 71 1011.3
20260902181304 62 299 16.0 24.0 0.00 0.35 0.03 71 1011.4
20260902180804 62 290 17.0 23.0 0.00 0.35 0.03 72 1011.3
20260902180304 62 292 18.0 23.0 0.00 0.35 0.03 71 1011.3
20260902180106 62 273 17.0 23.0 0.00 0.03 0.03 71 1011.4
20260902174603 62 287 16.0 22.0 0.00 0.03 0.03 72 1011.3
20260902174304 62 305 16.0 20.0 0.00 0.31 0.03 73 1011.4
20260902173804 62 303 16.0 21.0 0.00 0.31 0.03 72 1011.4
20260902173304 63 296 17.0 23.0 0.00 0.31 0.03 73 1011.4
20260902173120 62 319 16.0 22.0 0.00 0.03 0.03 72 1011.4
20260902171804 62 291 18.0 22.0 0.00 0.31 0.03 72 1011.4
20260902171609 62 289 13.0 24.0 0.00 0.03 0.03 72 1011.4
20260902171304 63 295 16.0 22.0 0.00 0.31 0.03 73 1011.4
20260902170804 63 310 16.0 22.0 0.00 0.31 0.03 72 1011.5
20260902170304 63 304 13.0 20.0 0.00 0.31 0.03 73 1011.4
20260902170110 62 292 12.0 19.0 0.00 0.03 0.03 73 1011.4
20260902164804 63 317 13.0 20.0 0.00 0.41 0.03 74 1011.4
20260902164607 63 327 14.0 19.0 0.00 0.03 0.03 73 1011.4
20260902164304 63 317 16.0 20.0 0.00 0.41 0.03 73 1011.5
20260902163805 63 310 12.0 18.0 0.00 0.41 0.03 74 1011.4
20260902163304 64 316 13.0 21.0 0.00 0.41 0.03 73 1011.5
20260902163107 63 329 12.0 21.0 0.00 0.03 0.03 73 1011.4
20260902161804 64 323 14.0 18.0 0.00 0.50 0.03 69 1011.4
20260902161610 63 334 14.0 21.0 0.00 0.03 0.03 69 1011.4
20260902161304 64 313 15.0 21.0 0.00 0.50 0.03 69 1011.5
20260902160105 64 329 11.0 17.0 0.00 0.03 0.03 68 1011.5
20260902154605 64 296 12.0 18.0 0.00 0.03 0.03 68 1011.4
20260902154304 65 312 12.0 15.0 0.00 0.50 0.03 67 1011.4
20260902153304 64 311 10.0 16.0 0.00 0.47 0.03 68 1011.4
20260902153109 64 339 7.0 16.0 0.00 0.03 0.03 67 1011.5
20260902151602 64 329 11.0 18.0 0.00 0.03 0.03 69 1011.3
20260902151304 64 319 8.0 15.0 0.00 0.44 0.03 70 1011.3
20260902150804 64 316 11.0 16.0 0.00 0.44 0.03 71 1011.4
20260902150104 64 331 13.0 18.0 0.00 0.03 0.03 73 1011.3
20260902144804 64 332 12.0 17.0 0.00 0.44 0.03 80 1011.3
20260902144601 63 327 12.0 17.0 0.00 0.03 0.03 80 1011.3
20260902143304 64 300 13.0 16.0 0.00 0.44 0.03 81 1011.2
20260902143104 63 305 9.0 17.0 0.00 0.03 0.03 81 1011.1
20260902141602 64 295 14.0 18.0 0.00 0.03 0.03 83 1010.9
20260902140304 63 274 13.0 18.0 0.00 0.41 0.03 84 1010.9
20260902140106 63 290 14.0 18.0 0.00 0.03 0.03 84 1010.9
20260902134804 63 277 13.0 18.0 0.00 0.41 0.03 84 1011.0
20260902134612 62 270 14.0 18.0 0.00 0.03 0.03 84 1011.0
20260902134304 63 281 13.0 17.0 0.01 0.41 0.03 84 1011.0
20260902133804 63 275 14.0 18.0 0.01 0.41 0.03 84 1010.9
20260902133303 63 273 13.0 17.0 0.01 0.41 0.03 84 1011.0
20260902133111 62 266 13.0 17.0 0.00 0.03 0.03 84 1010.9
20260902131804 62 275 13.0 18.0 0.01 0.41 0.03 84 1011.0
20260902131604 62 268 14.0 18.0 0.00 0.03 0.03 84 1011.1
20260902131304 62 265 14.0 17.0 0.01 0.41 0.03 84 1011.0
20260902130804 62 258 13.0 17.0 0.01 0.41 0.03 84 1011.0
20260902130303 62 263 15.0 20.0 0.01 0.41 0.03 85 1011.2
20260902130115 62 262 13.0 20.0 0.00 0.03 0.03 84 1011.1
20260902124804 62 261 16.0 20.0 0.01 0.41 0.03 85 1011.3
20260902124604 61 250 16.0 19.0 0.00 0.03 0.03 84 1011.2
20260902124304 62 263 13.0 18.0 0.00 0.40 0.02 85 1011.3
20260902123804 62 272 6.0 9.0 0.01 0.40 0.02 85 1011.3
20260902123112 61 279 2.0 5.0 0.00 0.02 0.02 84 1011.1
20260902121605 61 292 5.0 8.0 0.02 0.02 0.02 84 1011.4
20260902121304 62 291 5.0 8.0 0.02 0.40 0.02 84 1011.4
20260902120804 61 297 4.0 5.0 0.02 0.40 0.02 84 1011.4
20260902120304 61 297 3.0 8.0 0.02 0.40 0.02 84 1011.5
20260902120107 61 272 2.0 8.0 0.02 0.02 0.02 83 1011.5
20260902114804 62 293 3.0 6.0 0.02 0.40 0.02 83 1011.6
20260902114604 61 281 3.0 9.0 0.02 0.02 0.02 82 1011.6
20260902114304 62 266 4.0 8.0 0.02 0.40 0.02 82 1011.6
20260902113102 62 278 6.0 12.0 0.01 0.01 0.01 80 1011.7
20260902111804 63 295 5.0 8.0 0.00 0.38 0.00 78 1011.6
20260902111604 63 277 5.0 11.0 0.00 0.00 0.00 77 1011.6
20260902111304 63 293 5.0 8.0 0.00 0.38 0.00 77 1011.8
20260902110804 64 295 7.0 12.0 0.00 0.38 0.00 78 1011.8
20260902110304 64 293 5.0 12.0 0.00 0.38 0.00 77 1011.8
20260902110107 63 281 6.0 11.0 0.00 0.00 0.00 76 1011.9
20260902104804 64 299 6.0 12.0 0.00 0.38 0.00 77 1011.7
20260902104621 64 310 9.0 12.0 0.00 0.00 0.00 77 1011.7
20260902104304 64 294 9.0 12.0 0.00 0.38 0.00 78 1011.9
20260902103304 63 303 8.0 13.0 0.00 0.47 0.00 79 1011.9
20260902103122 63 293 9.0 13.0 0.00 0.00 0.00 78 1011.8
20260902101804 63 290 7.0 13.0 0.00 0.47 0.00 78 1011.9
20260902101609 63 310 9.0 14.0 0.00 0.00 0.00 78 1011.9
20260902100804 63 293 11.0 14.0 0.00 0.47 0.00 78 1012.0
20260902100305 63 296 9.0 14.0 0.00 0.47 0.00 78 1012.0
20260902094804 63 298 12.0 15.0 0.00 0.47 0.00 78 1012.0
20260902094605 63 305 10.0 15.0 0.00 0.00 0.00 77 1012.0
20260902093804 63 306 11.0 15.0 0.00 0.47 0.00 78 1012.0
20260902093304 64 304 9.0 17.0 0.00 0.47 0.00 77 1011.9
20260902093107 63 310 12.0 17.0 0.00 0.00 0.00 76 1011.9
20260902091804 64 309 13.0 16.0 0.00 0.47 0.00 77 1012.0
20260902091602 64 287 12.0 18.0 0.00 0.00 0.00 77 1011.9
20260902091304 64 291 12.0 16.0 0.00 0.47 0.00 79 1011.8
20260902090804 64 305 13.0 17.0 0.00 0.47 0.00 79 1011.9
20260902090305 63 300 13.0 18.0 0.00 0.47 0.00 80 1011.9
20260902090105 62 293 12.0 18.0 0.00 0.00 0.00 79 1011.8
20260902084804 63 288 13.0 20.0 0.00 0.47 0.00 84 1011.8
20260902084603 62 314 12.0 19.0 0.00 0.00 0.00 83 1011.7
20260902084304 63 299 13.0 17.0 0.00 0.47 0.00 84 1011.8
20260902083304 63 282 15.0 22.0 0.00 0.47 0.00 83 1011.6
20260902083104 62 276 15.0 22.0 0.00 0.00 0.00 83 1011.7
20260902081605 63 297 16.0 22.0 0.00 0.00 0.00 82 1011.6
20260902081304 63 286 17.0 20.0 0.00 0.47 0.00 83 1011.6
20260902074604 62 285 18.0 24.0 0.00 0.00 0.00 83 1011.4
20260902073108 62 270 17.0 25.0 0.00 0.00 0.00 84 1011.2
20260902071604 62 282 18.0 26.0 0.00 0.00 0.00 84 1011.1
20260902070109 62 246 18.0 25.0 0.00 0.00 0.00 85 1011.2
20260902064606 62 273 16.0 22.0 0.00 0.00 0.00 85 1011.2
20260902063113 62 252 16.0 25.0 0.00 0.00 0.00 84 1011.2
20260902061626 62 285 17.0 24.0 0.00 0.00 0.00 84 1011.2
20260902060110 62 261 18.0 22.0 0.00 0.00 0.00 84 1011.2
20260902054603 61 262 18.0 22.0 0.00 0.00 0.00 84 1011.0
20260902053107 61 264 18.0 23.0 0.00 0.00 0.00 85 1011.0
20260902051616 61 258 17.0 24.0 0.00 0.00 0.00 85 1011.0
20260902050111 61 276 18.0 24.0 0.00 0.00 0.00 85 1010.9
20260902044636 61 268 19.0 24.0 0.00 0.00 0.00 85 1010.9
20260902043106 61 266 17.0 23.0 0.00 0.00 0.00 85 1010.8
20260902041606 61 271 19.0 22.0 0.00 0.00 0.00 85 1010.8
20260902040111 61 274 17.0 23.0 0.00 0.00 0.00 85 1010.8
20260902034604 61 260 18.0 24.0 0.00 0.00 0.00 85 1010.9
20260902033107 61 264 19.0 26.0 0.00 0.00 0.00 84 1011.0
20260902031619 62 256 19.0 24.0 0.00 0.00 0.00 83 1011.1
20260902030108 61 267 18.0 23.0 0.00 0.00 0.00 83 1011.1
20260902024605 61 265 15.0 22.0 0.00 0.00 0.00 83 1011.3
20260902023107 61 260 18.0 22.0 0.00 0.00 0.00 83 1011.5
20260902021608 61 286 16.0 21.0 0.00 0.00 0.00 83 1011.5
20260902020108 61 269 16.0 20.0 0.00 0.00 0.00 83 1011.5
20260902014603 61 272 15.0 20.0 0.00 0.02 0.00 82 1011.6
20260902013112 61 274 15.0 19.0 0.00 0.02 0.00 82 1011.6
20260902011603 61 260 13.0 22.0 0.00 0.02 0.00 82 1011.7
20260902010106 61 288 14.0 19.0 0.00 0.02 0.00 81 1011.8
20260902004804 61 274 13.0 18.0 0.00 0.88 0.00 82 1011.9
20260902004609 61 285 13.0 18.0 0.00 0.09 0.00 81 1012.0
20260902004304 61 283 12.0 18.0 0.00 0.88 0.00 82 1012.0
20260902003804 61 287 13.0 16.0 0.00 0.89 0.00 82 1012.1
20260902003106 61 281 11.0 21.0 0.00 0.09 0.00 81 1012.0
20260902001804 61 285 16.0 20.0 0.00 0.94 0.00 80 1012.2
20260902001608 60 287 16.0 20.0 0.00 0.09 0.00 79 1012.1
20260902000804 61 294 16.0 20.0 0.00 0.94 0.00 80 1012.2
20260902000107 61 285 14.0 21.0 0.00 0.09 0.00 79 1012.1
20260901234804 61 300 13.0 18.0 0.00 0.94 0.00 79 1012.2
20260901234609 60 287 15.0 20.0 0.00 0.09 0.00 79 1012.1
20260901233804 61 290 16.0 20.0 0.00 0.94 0.00 79 1012.2
20260901233306 61 287 14.0 18.0 0.00 0.94 0.00 80 1012.3
20260901233107 60 292 15.0 18.0 0.00 0.09 0.00 79 1012.3
20260901231804 60 282 13.0 16.0 0.00 0.94 0.00 80 1012.3
20260901231616 60 287 12.0 16.0 0.00 0.09 0.00 79 1012.3
20260901231304 60 286 11.0 16.0 0.00 0.94 0.00 80 1012.4
20260901230804 60 280 10.0 13.0 0.00 0.94 0.00 80 1012.4